Location: ????? ???????
(44.0444°N, 135.6175°E)
Time: 01:49:32
(UTC+00:00)

NOSS 3-2 (C) - Pass Details

Date: 17 July 2025
Orbit: 672 x 1536 km, 63.4° (Epoch: 2 January)

Event Time Altitude Azimuth Distance (km) Brightness Sun altitude
Exits shadow 18:32:36 10° 206° (SSW) 2,206 4.8 -9.3°
Reaches altitude 10° 18:32:40 10° 206° (SSW) 2,179 4.8 -9.3°
Maximum altitude 18:37:33 71° 123° (ESE) 826 3.3 -8.6°
Drops below altitude 10° 18:43:21 10° 40° (NE) 2,582 7.4 -7.8°
Sets 18:46:08 0° 39° (NE) 3,661 8.5 -7.4°
